This demonstration page uses our WeatherBlox Daily Observations layout. Learn more.

Left ArrowRight Arrow

41.12389, -100.76542

Hourly Observations for February 19, 2023

Temp ( °F °C ) Dew Point ( °F °C ) Humidity (%) Winds ( mph kmh ) Pressure ( in mb ) Visibility ( mi km ) Precip ( " mm )
12:53 am 00:53 Clear with Mist and Fog 23 -5 19 -7.2 84 84 NW 5 7 29.87 1012 5 8 0.00 0.00
1:53 am 01:53 Clear with Mist and Fog 23 -5 19 -7.2 84 84 WNW 7 11 29.88 1012 6 10 0.00 0.00
2:53 am 02:53 Clear 23 -5 19 -7.2 84 84 WNW 6 9 29.88 1012 10 16 0.00 0.00
3:53 am 03:53 Clear 25 -3.9 20 -6.7 81 81 NW 9 15 29.89 1012 10 16 0.00 0.00
4:53 am 04:53 Clear 23 -5 19 -7.2 84 84 NW 8 13 29.91 1013 10 16 0.00 0.00
5:53 am 05:53 Clear 22 -5.6 17 -8.3 81 81 WNW 7 11 29.93 1014 10 16 0.00 0.00
6:53 am 06:53 Clear 21 -6.1 17 -8.3 84 84 NNW 3 6 29.96 1015 10 16 0.00 0.00
7:53 am 07:53 Sunny 21 -6.1 16 -8.9 80 80 NW 5 7 29.98 1015 10 16 0.00 0.00
8:53 am 08:53 Sunny 26 -3.3 22 -5.6 84 84 Calm 29.99 1016 10 16 0.00 0.00
9:53 am 09:53 Sunny 33 0.6 25 -3.9 72 72 WNW 5 7 30.01 1016 10 16 0.00 0.00
10:53 am 10:53 Sunny 39 3.9 27 -2.8 62 62 W 3 6 30.00 1016 10 16 0.00 0.00
11:53 am 11:53 Sunny 40 4.4 26 -3.3 57 57 Calm 29.99 1016 10 16 0.00 0.00
12:53 pm 12:53 Sunny 42 5.6 27 -2.8 55 55 Calm 29.96 1015 10 16 0.00 0.00
1:53 pm 13:53 Sunny 42 5.6 28 -2.2 57 57 SW 9 15 29.94 1014 10 16 0.00 0.00
2:53 pm 14:53 Sunny 41 5 26 -3.3 55 55 SW 8 13 29.93 1014 10 16 0.00 0.00
3:53 pm 15:53 Sunny 41 5 25 -3.9 52 52 WSW 7 11 29.91 1013 10 16 0.00 0.00
4:53 pm 16:53 Sunny 41 5 27 -2.8 57 57 SW 9 15 29.92 1013 10 16 0.00 0.00
5:53 pm 17:53 Sunny 38 3.3 28 -2.2 67 67 WSW 8 13 29.92 1013 10 16 0.00 0.00
6:53 pm 18:53 Clear 34 1.1 26 -3.3 72 72 Calm 29.91 1013 10 16 0.00 0.00
7:53 pm 19:53 Clear 32 0 25 -3.9 75 75 SSW 5 7 29.90 1013 10 16 0.00 0.00
8:53 pm 20:53 Clear 35 1.7 25 -3.9 66 66 W 5 7 29.85 1011 10 16 0.00 0.00
9:53 pm 21:53 Clear 36 2.2 24 -4.4 62 62 WSW 15 24 29.84 1011 10 16 0.00 0.00
10:53 pm 22:53 Clear 36 2.2 24 -4.4 62 62 W 13 20 29.82 1010 10 16 0.00 0.00
11:53 pm 23:53 Clear 37 2.8 24 -4.4 59 59 W 14 22 29.82 1010 10 16 0.00 0.00

Powered by AerisWeather